Location: Diebersbach
(48.5163°N, 8.0558°E)
Time: 14:05:51
(UTC+00:00)

Cosmos 2058 - Pass Details

Date: 20 June 2021
Orbit: 563 x 582 km, 82.5° (Epoch: 29 July)

Event Time Altitude Azimuth Distance (km) Brightness Sun altitude
Exits shadow 00:24:20 30° 158° (SSE) 1,030 3.7 -17.0°
Maximum altitude 00:26:06 54° 95° (E) 690 3.3 -16.9°
Drops below altitude 10° 00:30:07 10° 18° (NNE) 1,869 6.9 -16.8°
Sets 00:32:20 0° 14° (NNE) 2,772 8.2 -16.7°
